Waarnemingen

Advertentie
Mijn weer
La Rochelle/Ile de Re, Frankrijk (7316): temperatuur & dauwpunt: 14.07.2018 04:00:00 - 20.07.2018 04:00:00 (CEST)La Rochelle/Ile de Re, Frankrijk (7316): windsnelheid & windstoten: 14.07.2018 04:00:00 - 20.07.2018 04:00:00 (CEST)La Rochelle/Ile de Re, Frankrijk (7316): windrichting: 14.07.2018 04:00:00 - 20.07.2018 04:00:00 (CEST)La Rochelle/Ile de Re, Frankrijk (7316): luchtdruk: 14.07.2018 04:00:00 - 20.07.2018 04:00:00 (CEST)La Rochelle/Ile de Re, Frankrijk (7316): zicht: 14.07.2018 04:00:00 - 20.07.2018 04:00:00 (CEST)La Rochelle/Ile de Re, Frankrijk (7316): Zonneschijnduur: 14.07.2018 04:00:00 - 20.07.2018 04:00:00 (CEST)La Rochelle/Ile de Re, Frankrijk (7316): neerslag: 14.07.2018 04:00:00 - 20.07.2018 04:00:00 (CEST)
Datum & Tijd tt [°C] td [°C] ff [km/u] ff [kn] fx [km/u] fx [kn] dd ppp [hPa] vv [km] sd [min] rr [mm]
20.07.2018 04:00:00 17,4 16,1 6 3 20 11 NNO 1016,6 16 0 0,0
20.07.2018 03:00:00 17,9 16,6 13 7 21 11 NNW 1016,5 34 0 0,0
20.07.2018 02:00:00 17,8 16,8 9 5 14 8 W 1017,0 15 0 0,0
20.07.2018 01:00:00 18,1 16,6 8 5 17 9 W 1017,2 20 0 0,0
20.07.2018 00:00:00 18,6 16,9 5 3 9 5 WZW 1016,9 20 0 0,0
19.07.2018 23:00:00 18,0 16,7 4 2 10 5 ZW 1016,9 53 0 0,0
19.07.2018 22:00:00 18,1 16,6 10 5 19 11 O 1016,7 41 0 0,2
19.07.2018 21:00:00 18,2 16,5 11 6 29 16 N 1016,1 9 0 9,1
19.07.2018 20:00:00 18,6 16,7 19 11 37 20 NNO 1016,2 6 0 3,4
19.07.2018 19:00:00 19,2 16,6 29 15 42 23 NNW 1016,4 10 0 0,4
19.07.2018 18:00:00 21,4 16,4 25 14 44 24 N 1016,0 54 0 0,0
19.07.2018 17:00:00 21,5 16,9 30 16 41 22 NNW 1016,7 26 34 0,0
19.07.2018 16:00:00 24,4 16,9 31 17 49 26 N 1016,3 28 51 0,0
19.07.2018 15:00:00 21,4 17,0 41 22 53 29 NW 1016,2 18 5 0,0
19.07.2018 14:00:00 22,2 16,0 23 13 34 18 WNW 1016,6 41 0 0,0
19.07.2018 13:00:00 22,8 16,8 16 9 23 12 NW 1016,4 60 19 0,0
19.07.2018 12:00:00 22,2 17,1 13 7 16 9 NW 1016,6 48 0 0,0
19.07.2018 11:00:00 22,4 16,9 9 5 13 7 NW 1016,5 47 5 0,0
19.07.2018 10:00:00 23,4 15,7 3 1 13 7 NO 1016,5 59 11 0,0
19.07.2018 09:00:00 21,9 15,3 8 4 12 6 ONO 1016,4 58 4 0,0
19.07.2018 08:00:00 19,3 15,0 5 3 13 7 NO 1016,4 50 35 0,0
19.07.2018 07:00:00 16,9 13,8 10 5 12 6 N 1016,2 58 0 0,0
19.07.2018 06:00:00 17,0 13,9 4 2 10 6 N 1016,3 60 0 0,0
19.07.2018 05:00:00 17,2 13,3 8 5 13 7 N 1016,3 60 0 0,0
19.07.2018 04:00:00 17,6 13,3 9 5 14 7 N 1016,5 60 0 0,0
19.07.2018 03:00:00 18,2 13,7 8 5 23 12 N 1016,8 60 0 0,0
19.07.2018 02:00:00 19,0 14,5 16 8 20 11 N 1017,0 60 0 0,0
19.07.2018 01:00:00 19,5 14,3 13 7 21 11 N 1017,0 60 0 0,0
19.07.2018 00:00:00 19,9 16,1 16 9 21 11 NW 1017,4 60 0 0,0
18.07.2018 23:00:00 20,4 16,6 11 6 19 10 NW 1017,1 55 0 0,0
18.07.2018 22:00:00 20,6 16,2 16 9 24 13 NW 1016,4 59 20 0,0
18.07.2018 21:00:00 21,5 16,2 17 9 31 17 NW 1016,0 58 60 0,0
18.07.2018 20:00:00 22,1 15,7 25 13 32 18 WNW 1015,9 42 60 0,0
18.07.2018 19:00:00 23,2 16,7 24 13 32 17 NW 1015,4 46 60 0,0
18.07.2018 18:00:00 23,6 15,4 24 13 35 19 WNW 1016,1 56 60 0,0
18.07.2018 17:00:00 24,1 15,6 24 13 35 19 NW 1016,1 60 10 0,0
18.07.2018 16:00:00 22,7 13,5 27 15 35 19 WNW 1017,2 59 10 0,0
18.07.2018 15:00:00 23,2 14,7 24 13 29 16 NW 1016,2 20 38 0,0
18.07.2018 14:00:00 23,5 14,8 18 10 23 13 NW 1016,6 37 12 0,0
18.07.2018 13:00:00 23,6 13,2 18 10 23 12 NNW 1016,6 60 40 0,0
18.07.2018 12:00:00 23,4 13,3 13 7 28 15 N 1017,3 60 58 0,0
18.07.2018 11:00:00 22,5 12,1 8 4 16 8 ONO 1017,6 60 58 0,0
18.07.2018 10:00:00 19,7 12,5 8 4 16 9 NO 1017,9 59 21 0,0
18.07.2018 09:00:00 18,4 13,0 15 8 19 10 NNO 1017,8 60 14 0,0
18.07.2018 08:00:00 16,7 12,4 5 3 8 5 NO 1017,9 60 0 0,0
18.07.2018 07:00:00 15,6 12,2 5 3 11 6 NO 1018,0 60 0 0,0
18.07.2018 06:00:00 14,4 11,5 7 4 10 5 NO 1018,1 60 0 0,0
18.07.2018 05:00:00 15,7 11,9 9 5 21 11 NNO 1018,2 60 0 0,0
18.07.2018 04:00:00 17,3 12,0 14 7 19 10 N 1018,3 60 0 0,0
18.07.2018 03:00:00 17,4 12,5 14 7 20 11 N 1018,9 59 0 0,0
18.07.2018 02:00:00 17,7 12,6 13 7 20 11 N 1019,0 60 0 0,0
18.07.2018 01:00:00 18,3 14,0 13 7 21 11 NNW 1019,2 60 0 0,0
18.07.2018 00:00:00 18,3 14,0 12 6 16 8 NNW 1019,2 60 0 0,0
17.07.2018 23:00:00 18,0 13,1 10 5 17 9 WNW 1019,4 60 0 0,0
17.07.2018 22:00:00 19,2 12,7 12 7 21 12 NW 1019,0 60 19 0,0
17.07.2018 21:00:00 20,4 12,4 17 9 22 12 NW 1019,0 60 57 0,0
17.07.2018 20:00:00 21,9 13,8 15 8 24 13 W 1019,0 56 60 0,0
17.07.2018 19:00:00 22,6 13,1 18 10 24 13 W 1019,1 47 60 0,0
17.07.2018 18:00:00 23,5 11,5 14 8 23 13 WZW 1019,2 60 60 0,0
17.07.2018 17:00:00 23,8 13,3 11 6 22 12 WZW 1019,6 60 54 0,0
17.07.2018 16:00:00 23,7 13,8 13 7 23 12 WZW 1020,0 52 37 0,0
17.07.2018 15:00:00 22,9 13,1 16 9 28 15 ZW 1020,2 60 54 0,0
17.07.2018 14:00:00 23,1 14,1 18 10 29 16 ZW 1020,4 60 7 0,0
17.07.2018 13:00:00 22,4 13,7 16 8 26 14 W 1020,6 13 12 0,0
17.07.2018 12:00:00 22,4 14,5 8 5 18 10 WZW 1020,4 19 2 0,0
17.07.2018 11:00:00 21,5 15,1 9 5 18 10 ZW 1020,3 59 0 0,0
17.07.2018 10:00:00 20,7 15,7 7 4 12 7 WNW 1020,1 59 0 0,0
17.07.2018 09:00:00 20,0 15,4 8 4 12 6 WNW 1020,0 60 0 0,0
17.07.2018 08:00:00 19,8 15,6 8 5 13 7 NW 1019,8 60 10 0,0
17.07.2018 07:00:00 19,2 15,3 11 6 21 11 WNW 1019,6 60 0 0,0
17.07.2018 06:00:00 19,1 16,1 13 7 22 12 NW 1019,3 58 0 0,0
17.07.2018 05:00:00 18,8 16,0 17 9 29 16 NW 1019,2 60 0 0,0
17.07.2018 04:00:00 19,1 15,8 19 11 29 15 W 1019,1 53 0 0,0
17.07.2018 03:00:00 19,3 16,3 16 9 27 15 W 1019,3 59 0 0,0
17.07.2018 02:00:00 19,6 17,2 16 9 23 12 W 1019,4 57 0 0,0
17.07.2018 01:00:00 19,7 16,9 8 4 18 10 W 1019,6 60 0 0,0
17.07.2018 00:00:00 19,9 16,7 13 7 26 14 WNW 1019,4 60 0 0,0
16.07.2018 23:00:00 20,1 17,3 20 11 32 18 WNW 1019,1 60 0 0,0
16.07.2018 22:00:00 20,3 17,5 21 11 34 19 WNW 1018,4 59 18 0,0
16.07.2018 21:00:00 21,0 17,4 25 14 42 23 NW 1018,0 43 60 0,0
16.07.2018 20:00:00 21,6 17,0 32 17 49 26 WNW 1017,5 27 52 0,0
16.07.2018 19:00:00 22,2 17,1 35 19 49 26 NW 1016,8 20 53 0,0
16.07.2018 18:00:00 22,7 17,2 38 21 54 29 WNW 1016,6 18 60 0,0
16.07.2018 17:00:00 23,3 17,5 42 23 58 32 WNW 1016,1 20 60 0,0
16.07.2018 16:00:00 23,9 16,9 44 24 59 32 WNW 1015,8 20 60 0,0
16.07.2018 15:00:00 23,8 16,3 39 21 53 29 WNW 1015,4 24 60 0,0
16.07.2018 14:00:00 24,0 14,4 38 20 51 28 WNW 1015,5 26 60 0,0
16.07.2018 13:00:00 24,3 14,1 31 17 42 23 WNW 1015,4 30 60 0,0
16.07.2018 12:00:00 24,8 15,4 22 12 29 15 WNW 1015,4 24 60 0,0
16.07.2018 11:00:00 23,6 16,1 10 6 18 10 NW 1014,8 20 60 0,0
16.07.2018 10:00:00 22,4 15,3 10 5 19 10 NNW 1014,5 19 60 0,0
16.07.2018 09:00:00 21,3 17,3 12 6 19 10 NW 1014,3 36 58 0,0
16.07.2018 08:00:00 20,6 17,2 10 5 16 8 NW 1014,2 45 60 0,0
16.07.2018 07:00:00 19,5 17,3 15 8 24 13 NNW 1013,9 39 4 0,0
16.07.2018 06:00:00 19,9 17,3 20 11 29 15 NW 1013,5 43 0 0,0
16.07.2018 05:00:00 20,0 15,0 11 6 16 9 W 1014,0 47 0 0,0
16.07.2018 04:00:00 21,6 15,4 6 4 23 12 WZW 1014,6 48 0 0,0
16.07.2018 03:00:00 22,6 15,4 20 11 31 17 ZW 1015,4 58 0 0,0
16.07.2018 02:00:00 21,8 15,2 13 7 27 15 WNW 1015,2 55 0 0,0
16.07.2018 01:00:00 22,3 15,4 11 6 22 12 N 1014,8 55 0 0,0
16.07.2018 00:00:00 23,4 15,4 16 8 23 12 N 1014,5 60 0 0,0
15.07.2018 23:00:00 23,1 17,3 12 6 23 12 N 1014,2 19 0 0,0
15.07.2018 22:00:00 24,0 16,5 14 8 22 12 NW 1013,7 49 22 0,0
15.07.2018 21:00:00 24,6 16,6 14 8 29 16 WNW 1013,5 19 60 0,0
15.07.2018 20:00:00 25,4 16,5 19 10 29 16 NW 1013,5 39 60 0,0
15.07.2018 19:00:00 26,2 16,2 23 12 35 19 NW 1013,5 30 60 0,0
15.07.2018 18:00:00 26,2 16,7 25 14 35 19 NW 1013,5 20 60 0,0
15.07.2018 17:00:00 26,5 17,3 26 14 34 18 NW 1013,6 34 60 0,0
15.07.2018 16:00:00 28,2 15,8 22 12 30 16 NW 1014,0 20 60 0,0
15.07.2018 15:00:00 29,2 16,4 20 11 25 13 NW 1014,1 19 60 0,0
15.07.2018 14:00:00 29,1 16,6 18 10 22 12 NW 1014,3 13 60 0,0
15.07.2018 13:00:00 28,9 14,7 18 10 24 13 NNW 1014,6 14 60 0,0
15.07.2018 12:00:00 28,3 17,5 12 7 18 10 N 1015,3 7 60 0,0
15.07.2018 11:00:00 27,0 18,0 9 5 16 9 N 1015,3 45 60 0,0
15.07.2018 10:00:00 25,3 16,4 6 3 13 7 NO 1015,4 20 60 0,0
15.07.2018 09:00:00 22,6 16,6 7 4 14 8 NO 1015,3 33 60 0,0
15.07.2018 08:00:00 20,8 17,0 10 5 13 7 NNO 1015,2 24 60 0,0
15.07.2018 07:00:00 19,2 16,4 6 4 11 6 NNO 1015,1 20 7 0,0
15.07.2018 06:00:00 19,2 15,5 4 2 15 8 NNO 1015,0 19 0 0,0
15.07.2018 05:00:00 19,2 15,9 8 5 12 7 NNO 1015,1 28 0 0,0
15.07.2018 04:00:00 19,5 14,9 9 5 15 8 NO 1015,3 34 0 0,0
15.07.2018 03:00:00 20,1 14,7 10 6 18 10 NO 1015,6 36 0 0,0
15.07.2018 02:00:00 21,1 15,4 12 6 16 8 NNO 1015,8 37 0 0,0
15.07.2018 01:00:00 21,4 16,1 10 5 13 7 NO 1016,1 40 0 0,0
15.07.2018 00:00:00 22,2 17,6 9 5 11 6 N 1016,0 37 0 0,0
14.07.2018 23:00:00 22,9 18,7 8 4 16 8 N 1016,1 19 0 0,0
14.07.2018 22:00:00 23,7 17,7 12 6 25 14 NNW 1015,7 39 7 0,0
14.07.2018 21:00:00 24,6 16,8 21 11 30 16 NNW 1015,6 39 41 0,0
14.07.2018 20:00:00 25,4 16,5 22 12 31 17 NW 1015,6 26 60 0,0
14.07.2018 19:00:00 26,1 16,6 21 12 32 18 NW 1015,9 25 60 0,0
14.07.2018 18:00:00 26,3 16,2 25 13 35 19 NW 1016,2 27 60 0,0
14.07.2018 17:00:00 27,3 16,6 23 12 32 17 NW 1016,4 30 56 0,0
14.07.2018 16:00:00 27,8 16,4 21 12 25 13 NW 1016,8 33 60 0,0
14.07.2018 15:00:00 28,4 15,0 19 10 24 13 WNW 1017,2 13 55 0,0
14.07.2018 14:00:00 29,2 15,7 15 8 36 19 NW 1017,4 14 50 0,0
14.07.2018 13:00:00 29,7 12,6 5 3 18 10 O 1017,6 19 42 0,0
14.07.2018 12:00:00 29,1 13,7 11 6 19 10 NO 1017,8 47 60 0,0
14.07.2018 11:00:00 27,4 15,1 7 4 18 10 ONO 1018,2 19 60 0,0
14.07.2018 10:00:00 24,7 15,9 10 5 18 10 O 1018,3 26 60 0,0
14.07.2018 09:00:00 21,4 15,2 12 7 16 9 ONO 1018,2 20 28 0,0
14.07.2018 08:00:00 19,6 14,6 13 7 18 10 O 1018,1 27 18 0,0
14.07.2018 07:00:00 18,0 13,9 13 7 18 10 ONO 1017,9 27 8 0,0
14.07.2018 06:00:00 17,4 13,7 10 6 14 8 ONO 1018,0 23 0 0,0
14.07.2018 05:00:00 17,7 13,6 11 6 16 9 NO 1018,3 26 0 0,0
14.07.2018 04:00:00 18,6 14,1 12 7 17 9 NO 1018,4 29 0 0,0

tt = temperatuur
td = dauwpunt
ff = windsnelheid
fx = windstoten
dd = windrichting
ppp = luchtdruk
vv = zicht
sd = Zonneschijnduur
rr = neerslag

Weerstations in de omgeving